[[{"header":{"parameterUnit":"m.s-1","parameterCategory":1,"la1":30.2991,"la2":30.254,"lo1":-89.0895,"lo2":-89.0444,"dy":0.0017,"dx":0.0017,"nx":28,"ny":28,"refTime":"2024-04-11T03:00:00:Z","depth":0,"parameterNumber":2,"parameterNumberName":"U-component_of_WINDS"},"data":[0,0,0,0,0,0,0,0,0,0,0,0,0,0,0,0,0,0,0,0,0,0,0,0,0,0,0,0,0,0,0,0,0,0,0,0,0,0,0,0,0,0,0,0,0,0,0,0,0,0,0,0,0,0,0,0,0,0,1.6356,1.6357,0,1.6446,1.6447,1.6448,1.6493,1.6493,1.6493,1.6493,1.6587,1.6589,1.6591,0,0,0,0,0,0,0,0,0,0,0,0,0,1.6225,1.6227,1.6356,1.6357,1.6358,1.6446,1.6447,1.6448,1.6493,1.6493,1.6493,1.6493,1.6586,1.6589,1.6592,0,0,0,0,0,0,0,0,0,0,0,0,0,1.6295,1.6228,1.6356,1.6391,1.6395,1.6446,1.6447,1.6449,1.6493,1.6493,1.6493,1.6493,1.6585,1.6588,1.6592,1.6615,0,0,1.6604,1.6605,0,0,0,0,0,0,0,0,1.6291,1.63,1.6385,1.6389,1.6393,1.6458,1.6436,1.6505,1.6493,1.6456,1.6493,1.6493,1.6544,1.6551,1.6568,1.662,1.6624,1.6604,1.6606,1.6608,1.6609,0,0,0,0,0,0,0,1.6286,1.6296,1.6392,1.6386,1.6391,1.6403,1.6413,1.6449,1.6499,1.6459,1.6462,1.6472,1.6546,1.6564,1.6571,1.6625,1.6604,1.6607,1.6609,1.6611,1.6702,1.6703,0,0,0,0,0,0,1.6275,1.6292,1.6389,1.6394,1.6341,1.6405,1.6417,1.6437,1.6498,1.6508,1.6472,1.6474,1.6558,1.6566,1.6574,1.6606,1.6608,1.6611,1.6613,1.6702,1.6702,1.6703,0,0,0,0,0,0,1.6272,1.6284,1.6385,1.6344,1.6358,1.6408,1.6431,1.6439,1.6457,1.6508,1.6518,1.6481,1.6558,1.6569,1.6605,1.661,1.6613,1.6616,1.6702,1.6702,1.6703,1.667,0,0,0,0,0,0,1.6269,1.6282,1.6291,1.6344,1.636,1.6414,1.6431,1.6441,1.6463,1.6466,1.6519,1.6528,1.6559,1.6599,1.6609,1.6615,1.6619,1.6702,1.6702,1.6702,1.6671,1.6669,1.6668,0,0,0,0,0,1.6264,1.6278,1.6291,1.6302,1.6372,1.6414,1.6423,1.6458,1.6463,1.6473,1.6506,1.6527,1.6608,1.6602,1.6614,1.6621,1.6702,1.6702,1.6702,1.6672,1.667,1.6668,0,0,0,0,0,0,1.6224,1.6286,1.6301,1.6333,1.6368,1.6421,1.6434,1.6454,1.6489,1.649,1.6533,1.6544,1.6577,1.6603,1.6596,1.6648,1.6657,1.666,1.663,1.6628,1.6627,1.662,1.6622,0,0,0,0,0,1.6219,1.6248,1.63,1.6323,1.634,1.6384,1.6404,1.6427,1.6466,1.6481,1.6517,1.6554,1.6588,1.661,1.6644,1.6675,1.6688,1.6686,1.6685,1.6683,1.6685,1.6705,1.6705,1.6704,1.6704,1.6704,0,0,1.6209,1.6246,1.6262,1.6316,1.6346,1.6376,1.6396,1.6426,1.6449,1.6486,1.6522,1.655,1.6594,1.6628,1.6645,1.6651,1.6688,1.6683,1.6682,1.6685,1.6705,1.6705,1.6705,1.6704,1.6704,1.6704,0,0,1.6206,1.6237,1.626,1.629,1.6335,1.6364,1.637,1.6421,1.6441,1.6478,1.6507,1.6535,1.6592,1.6623,1.6646,1.6656,1.6677,1.6666,1.6658,1.6677,1.6677,1.6677,1.6682,1.6683,1.6668,1.6668,1.6668,0,1.6188,1.6233,1.6269,1.6298,1.6322,1.6357,1.6381,1.6409,1.6463,1.6479,1.6485,1.6558,1.6591,1.6633,1.6636,1.6653,1.6662,1.666,1.6674,1.6675,1.6676,1.668,1.6682,1.6666,1.6667,1.6667,1.6667,0,1.6209,1.624,1.6254,1.6305,1.633,1.6356,1.6398,1.642,1.6442,1.6471,1.6509,1.6549,1.6593,1.6605,1.6626,1.6651,1.6653,1.6666,1.6676,1.6674,1.6679,1.6681,1.6664,1.6665,1.6665,1.6666,0,0,1.6183,1.6255,1.6259,1.6284,1.6337,1.6362,1.639,1.6433,1.6451,1.6487,1.6513,1.6562,1.6575,1.6601,1.6627,1.6643,1.665,1.6654,1.6656,1.6653,1.6681,1.6671,1.6673,1.6664,1.6665,1.6665,1.6678,0,1.6188,1.624,1.6274,1.6314,1.6343,1.6377,1.6403,1.6439,1.6467,1.6497,1.6529,1.6563,1.6577,1.6593,1.6611,1.6645,1.6656,1.6645,1.669,1.6691,1.6677,1.6675,1.6665,1.6675,1.668,1.668,1.668,0,1.62,1.6236,1.6277,1.6329,1.6342,1.6364,1.6407,1.6435,1.6477,1.6496,1.6526,1.6553,1.6586,1.6593,1.664,1.6631,1.6652,1.6672,1.6673,1.6679,1.6685,1.6681,1.6679,1.668,1.6684,1.6684,1.6683,0,1.6178,1.6236,1.6269,1.6289,1.6349,1.6364,1.639,1.6432,1.6455,1.6493,1.6509,1.655,1.6572,1.6604,1.6641,1.6642,1.6685,1.6694,1.6703,1.6702,1.671,1.6709,1.6711,1.6722,1.6722,1.6722,1.6722,0,1.6179,1.6204,1.626,1.628,1.6309,1.6349,1.6377,1.6406,1.6444,1.6471,1.6503,1.6529,1.6576,1.6608,1.6637,1.6672,1.6682,1.67,1.6707,1.6697,1.6695,1.6711,1.6711,1.6723,1.6723,1.6723,1.6723,0,1.6159,1.6197,1.6236,1.629,1.6304,1.6323,1.637,1.6392,1.6422,1.6457,1.6467,1.6516,1.6554,1.6595,1.6647,1.6668,1.6702,1.6712,1.6687,1.6692,1.6698,1.6697,1.671,1.6715,1.6723,1.6723,1.6722,0,1.6158,1.6177,1.6234,1.6254,1.6279,1.6312,1.6336,1.6377,1.6401,1.6452,1.6468,1.6509,1.6544,1.6605,1.6645,1.6686,1.6698,1.67,1.6704,1.6694,1.6699,1.6697,1.67,1.6698,1.6698,1.6698,1.6698,0,1.6152,1.617,1.6203,1.6244,1.6272,1.6306,1.6342,1.6357,1.6405,1.6431,1.6471,1.6498,1.6553,1.6594,1.664,1.6668,1.6691,1.6696,1.67,1.669,1.6675,1.6684,1.6683,1.6695,1.6696,1.6696,1.6696,1.6696,1.6141,1.6161,1.6204,1.6241,1.6272,1.6304,1.6328,1.6361,1.6395,1.6442,1.6465,1.6505,1.6548,1.6612,1.664,1.6673,1.668,1.6686,1.6687,1.6688,1.6686,1.667,1.6682,1.6682,1.6682,1.6682,1.6682,0,1.6137,1.6167,1.62,1.6249,1.6278,1.6298,1.6338,1.6362,1.6397,1.6435,1.6469,1.6516,1.6556,1.66,1.6643,1.6661,1.6673,1.6671,1.6671,1.6677,1.6677,1.6669,1.6661,1.6661,1.6661,1.6661,1.6661,1.6661,1.6139,1.6173,1.6197,1.6248,1.6278,1.6317,1.6339,1.637,1.64,1.6451,1.6484,1.6513,1.6554,1.6601,1.6639,1.6651,1.6666,1.6661,1.6676,1.6675,1.6677,1.6678,1.6671,1.6664,1.6664,1.6673,1.6673,1.6673]},{"header":{"parameterUnit":"m.s-1","parameterCategory":1,"la1":30.2991,"la2":30.254,"lo1":-89.0895,"lo2":-89.0444,"dy":0.0017,"dx":0.0017,"nx":28,"ny":28,"refTime":"2024-04-11T03:00:00:Z","depth":0,"parameterNumber":3,"parameterNumberName":"V-component_of_WINDS"},"data":[0,0,0,0,0,0,0,0,0,0,0,0,0,0,0,0,0,0,0,0,0,0,0,0,0,0,0,0,0,0,0,0,0,0,0,0,0,0,0,0,0,0,0,0,0,0,0,0,0,0,0,0,0,0,0,0,0,0,-2.7315,-2.7315,0,-2.7352,-2.7352,-2.7353,-2.738,-2.738,-2.7381,-2.7381,-2.7416,-2.7416,-2.7417,0,0,0,0,0,0,0,0,0,0,0,0,0,-2.7267,-2.7268,-2.7315,-2.7315,-2.7316,-2.7352,-2.7352,-2.7353,-2.738,-2.738,-2.7381,-2.7381,-2.7415,-2.7416,-2.7417,0,0,0,0,0,0,0,0,0,0,0,0,0,-2.7294,-2.7268,-2.7315,-2.7334,-2.7336,-2.7352,-2.7352,-2.7353,-2.738,-2.738,-2.7381,-2.7381,-2.7415,-2.7416,-2.7417,-2.7416,0,0,-2.742,-2.7421,0,0,0,0,0,0,0,0,-2.7292,-2.7296,-2.7331,-2.7333,-2.7335,-2.7362,-2.7348,-2.7374,-2.738,-2.7363,-2.7381,-2.7381,-2.7397,-2.74,-2.7406,-2.7418,-2.7419,-2.742,-2.7421,-2.7421,-2.7422,0,0,0,0,0,0,0,-2.7291,-2.7294,-2.7329,-2.7331,-2.7334,-2.734,-2.7344,-2.7353,-2.7377,-2.7365,-2.7367,-2.7371,-2.7398,-2.7405,-2.7407,-2.742,-2.742,-2.7421,-2.7422,-2.7422,-2.7435,-2.7435,0,0,0,0,0,0,-2.7286,-2.7293,-2.7328,-2.7331,-2.7314,-2.7341,-2.7346,-2.7353,-2.7378,-2.7382,-2.7371,-2.7372,-2.7403,-2.7406,-2.7408,-2.741,-2.7421,-2.7422,-2.7423,-2.7436,-2.7435,-2.7435,0,0,0,0,0,0,-2.7285,-2.7289,-2.7327,-2.7312,-2.7318,-2.7341,-2.7349,-2.7353,-2.736,-2.7382,-2.7386,-2.7373,-2.7403,-2.7407,-2.7415,-2.7412,-2.7423,-2.7424,-2.7436,-2.7435,-2.7435,-2.7413,0,0,0,0,0,0,-2.7283,-2.7288,-2.7288,-2.7312,-2.7318,-2.7333,-2.7349,-2.7354,-2.7362,-2.7364,-2.7385,-2.7389,-2.7404,-2.7413,-2.7416,-2.7413,-2.7425,-2.7436,-2.7436,-2.7435,-2.7414,-2.7412,-2.741,0,0,0,0,0,-2.7282,-2.7279,-2.7288,-2.7292,-2.7319,-2.7333,-2.7336,-2.7354,-2.7361,-2.7362,-2.7376,-2.7388,-2.7412,-2.7414,-2.7417,-2.7415,-2.7437,-2.7436,-2.7435,-2.7415,-2.7413,-2.741,0,0,0,0,0,0,-2.7253,-2.7283,-2.7293,-2.7298,-2.7313,-2.7337,-2.7338,-2.735,-2.7362,-2.7364,-2.7385,-2.739,-2.7396,-2.7406,-2.7408,-2.7416,-2.7426,-2.7426,-2.7409,-2.7407,-2.7405,-2.7402,-2.7426,0,0,0,0,0,-2.7248,-2.7257,-2.7282,-2.7285,-2.7292,-2.7314,-2.732,-2.7333,-2.7349,-2.7355,-2.737,-2.7384,-2.7395,-2.7402,-2.7413,-2.7416,-2.7422,-2.7417,-2.7414,-2.7413,-2.7412,-2.7417,-2.7415,-2.7433,-2.7433,-2.7433,0,0,-2.7236,-2.7253,-2.7258,-2.728,-2.7293,-2.7302,-2.7319,-2.7327,-2.7334,-2.7356,-2.7365,-2.7377,-2.7394,-2.7401,-2.7404,-2.7409,-2.7409,-2.7412,-2.741,-2.7411,-2.7416,-2.7414,-2.7413,-2.7432,-2.7433,-2.7433,0,0,-2.722,-2.7234,-2.7238,-2.7252,-2.7272,-2.7287,-2.7288,-2.7311,-2.732,-2.733,-2.7347,-2.7356,-2.7374,-2.7386,-2.7394,-2.7386,-2.7398,-2.7389,-2.7378,-2.7382,-2.7381,-2.738,-2.7378,-2.7377,-2.7388,-2.7388,-2.7388,0,-2.7202,-2.7218,-2.7239,-2.7248,-2.7257,-2.7279,-2.7284,-2.7296,-2.7318,-2.7324,-2.733,-2.7354,-2.7367,-2.7378,-2.7376,-2.7382,-2.7384,-2.7386,-2.738,-2.7379,-2.7378,-2.7376,-2.7375,-2.7387,-2.7387,-2.7387,-2.7388,0,-2.7196,-2.7207,-2.7208,-2.7231,-2.7241,-2.7248,-2.727,-2.7277,-2.729,-2.7304,-2.7315,-2.7332,-2.7348,-2.7351,-2.7362,-2.7364,-2.7367,-2.7376,-2.7385,-2.7375,-2.7374,-2.7373,-2.7386,-2.7386,-2.7386,-2.7387,0,0,-2.7162,-2.7198,-2.7199,-2.721,-2.7235,-2.7244,-2.7252,-2.7269,-2.7275,-2.729,-2.7298,-2.7314,-2.7324,-2.7333,-2.7346,-2.735,-2.7344,-2.7359,-2.736,-2.7356,-2.7348,-2.7342,-2.7341,-2.7352,-2.7352,-2.7352,-2.7347,0,-2.715,-2.7167,-2.7188,-2.7198,-2.7209,-2.7231,-2.7238,-2.7254,-2.7268,-2.7279,-2.7295,-2.7306,-2.7317,-2.7323,-2.7328,-2.7344,-2.7343,-2.7344,-2.736,-2.736,-2.7355,-2.734,-2.7333,-2.7327,-2.7347,-2.7347,-2.7347,0,-2.7139,-2.7155,-2.7166,-2.7193,-2.7198,-2.7204,-2.7223,-2.7233,-2.7252,-2.7263,-2.7275,-2.729,-2.73,-2.7309,-2.7324,-2.7324,-2.7332,-2.7341,-2.7341,-2.7344,-2.7353,-2.7342,-2.7325,-2.7325,-2.7346,-2.7346,-2.7346,0,-2.7114,-2.7138,-2.7149,-2.7158,-2.7189,-2.7193,-2.7206,-2.7226,-2.7235,-2.7251,-2.7258,-2.7274,-2.7283,-2.7295,-2.7314,-2.7319,-2.7328,-2.7338,-2.7336,-2.7336,-2.7337,-2.7337,-2.7322,-2.7341,-2.7341,-2.7341,-2.7341,0,-2.7099,-2.7106,-2.7139,-2.7145,-2.7154,-2.7177,-2.7185,-2.7199,-2.7217,-2.7227,-2.7247,-2.7255,-2.728,-2.7292,-2.7307,-2.7318,-2.7321,-2.733,-2.7334,-2.7328,-2.7327,-2.7334,-2.7335,-2.7341,-2.7341,-2.7341,-2.7341,0,-2.7072,-2.7095,-2.7108,-2.7137,-2.7145,-2.715,-2.7174,-2.7182,-2.7198,-2.721,-2.7215,-2.724,-2.7255,-2.7275,-2.7296,-2.7306,-2.7315,-2.7321,-2.7309,-2.7312,-2.731,-2.731,-2.7299,-2.7299,-2.7317,-2.7317,-2.7317,0,-2.7062,-2.7068,-2.7098,-2.7107,-2.712,-2.7133,-2.7144,-2.7168,-2.7178,-2.7202,-2.7207,-2.7224,-2.7239,-2.7262,-2.7281,-2.7298,-2.7305,-2.73,-2.7307,-2.7302,-2.7306,-2.7306,-2.7307,-2.7298,-2.7297,-2.7297,-2.7297,0,-2.7041,-2.7053,-2.7068,-2.7088,-2.7101,-2.7117,-2.7134,-2.714,-2.7167,-2.7178,-2.7195,-2.7206,-2.7229,-2.7246,-2.7266,-2.7278,-2.7292,-2.7295,-2.7296,-2.729,-2.7283,-2.7288,-2.7305,-2.7295,-2.7295,-2.7295,-2.7295,-2.7295,-2.7023,-2.703,-2.7053,-2.707,-2.7086,-2.7102,-2.7112,-2.713,-2.7145,-2.7166,-2.7179,-2.7195,-2.7216,-2.7244,-2.7257,-2.727,-2.7275,-2.7276,-2.7276,-2.7276,-2.7275,-2.7281,-2.7273,-2.7273,-2.7274,-2.7274,-2.7274,0,-2.7004,-2.7021,-2.7036,-2.7061,-2.7075,-2.7088,-2.7108,-2.7119,-2.7133,-2.7152,-2.7167,-2.7187,-2.7204,-2.7226,-2.7245,-2.7251,-2.7258,-2.7256,-2.7255,-2.7259,-2.7269,-2.7267,-2.725,-2.725,-2.725,-2.725,-2.725,-2.725,-2.6996,-2.701,-2.7024,-2.7046,-2.7063,-2.708,-2.7091,-2.7106,-2.7121,-2.7143,-2.7158,-2.7173,-2.7194,-2.7214,-2.7231,-2.7237,-2.7243,-2.7238,-2.7246,-2.7255,-2.7258,-2.726,-2.7258,-2.7239,-2.7239,-2.7235,-2.7235,-2.7235]}]]